Regional Weather Roundup
Issued by NWS

Home | Current Version | Previous Version | Graphics & Text | Print | Product List | Glossary On
Versions: 1 2 3 4 5 6 7 8 9 10 11 12 13 14 15 16 17 18 19 20 21 22 23 24 25 26 27 28 29 30 31 32 33 34 35 36 37 38 39 40 41 42 43 44 45 46 47 48 49 50
000
ASUS45 KABQ 202010
RWRNM
WEATHER ROUNDUP FOR NEW MEXICO
NATIONAL WEATHER SERVICE ALBUQUERQUE NM
200 PM MDT WED AUG 20 2014

NOTE: "FAIR" MEANS FEW OR NO CLOUDS BELOW 12,000 FEET AGL WITH NO
       SIGNIFICANT WEATHER OR OBSTRUCTIONS TO VISION.

      THIS PRODUCT IS RELEASED AS TWO VERSIONS.  ONE VERSION NEAR
      THE TOP OF THE HOUR CONTAINING PRELIMINARY DATA FROM ALBUQUERQUE
      AND OTHER STATIONS.  A FINAL VERSION WITH ADDITIONAL DATA IS
      ISSUED ABOUT 10 MINUTES AFTER THE HOUR.

NMZ501-503-504-510>518-202100-
NORTHWEST PLATEAU/NORTHCENTRAL MOUNTAINS

CITY           SKY/WX    TMP DP  RH WIND       PRES   REMARKS
FARMINGTON     MOSUNNY   79  44  28 NW10G21   30.08F
LOS ALAMOS     MOSUNNY   73  48  41 S7        30.18F
SANTA FE       PTSUNNY   81  48  31 SW13G18   30.10F
TAOS           MOSUNNY   77  46  33 SW8G18    30.16F
ANGEL FIRE     FAIR      70  48  45 W10G21    30.24F

$$
NMZ402-403-502-505>509-202100-
WESTCENTRAL MOUNTAINS/SOUTHWEST MOUNTAINS

CITY           SKY/WX    TMP DP  RH WIND       PRES   REMARKS
GALLUP         PTSUNNY   76  38  25 CALM      30.17F
SILVER CITY    SUNNY     81  48  32 NW15      30.14S

$$
NMZ407-409-411-412-202100-
SOUTHERN DESERTS

CITY           SKY/WX    TMP DP  RH WIND       PRES   REMARKS
LORDSBURG      FAIR      81  55  41 W15G22    30.08F
DEMING         SUNNY     87  48  25 W9G17     30.04F
LAS CRUCES     MOSUNNY   83  53  35 E8        30.05F
HOLLOMAN AFB   MOSUNNY   88  54  31 N1        29.99F
ALAMOGORDO     SUNNY     84  54  34 SW3       30.01F
T OR C         MOSUNNY   85  46  25 MISG      30.05F

$$
NMZ519>523-202100-
CENTRAL VALLEYS/CENTRAL HIGHLANDS

CITY           SKY/WX    TMP DP  RH WIND       PRES   REMARKS
ALBUQUERQUE    MOSUNNY   84  44  24 NW10G16   30.07F
DOUBLE EAGLE   PTSUNNY   82  43  24 W12G18    30.11F
MORIARTY ARPT  MOCLDY    80  48  32 W10G17    30.13S
CLINES CORNERS MOSUNNY   77  48  35 NW14G23   30.16S
BELEN          FAIR      83  47  28 W5        30.07F
SOCORRO        FAIR      87  43  21 NW13G20   30.04F

$$
NMZ524>526-539-540-202100-
SOUTHCENTRAL MOUNTAINS

CITY           SKY/WX    TMP DP  RH WIND       PRES   REMARKS
RUIDOSO        PTSUNNY   73  54  49 NW10      30.19F

$$
NMZ527>531-202100-
NORTHEAST HIGHLANDS/NORTHEAST PLAINS

CITY           SKY/WX    TMP DP  RH WIND       PRES   REMARKS
LAS VEGAS      MOSUNNY   79  49  34 S15G25    30.11F
RATON          MOSUNNY   86  47  25 SW20G26   30.03F
CLAYTON        MOSUNNY   91  46  21 SW18G30   29.95F

$$
NMZ532>537-202100-
EASTCENTRAL PLAINS

CITY           SKY/WX    TMP DP  RH WIND       PRES   REMARKS
TUCUMCARI      MOSUNNY   97  51  21 SW16G25   29.90F
CANNON AFB     MOSUNNY   91  54  28 SW7G18    29.96F
CLOVIS AIRPORT   N/A     91  54  27 S23G30    29.97F

$$
NMZ028-029-538-202100-
SOUTHEAST PLAINS

CITY           SKY/WX    TMP DP  RH WIND       PRES   REMARKS
ROSWELL        SUNNY     92  60  34 NE10      29.91F
ARTESIA        MOSUNNY   91  50  24 SE13G20   29.92S
CARLSBAD       SUNNY     93  55  27 S8        29.90F
HOBBS          MOSUNNY   91  54  27 S14G23    29.96F


$$


USA.gov is the U.S. government's official web portal to all federal, state and local government web resources and services.